Lincoln, IL

10:07 AM CDT on October 16, 2019 (GMT -0500)
Lincoln

Weather History for KAAA - September, 2019

Change the Weather History Date:

Monday, September 16, 2019

  Actual Average (KSPI) Record (KSPI)
Temperature  
Mean Temperature 75 °F -  
Max Temperature 86 °F 75 °F 100 °F (1939)
Min Temperature 64 °F 55 °F 39 °F (2000)
Cooling Degree Days 10    
Growing Degree Days 25 (Base 50)    
Moisture  
Dew Point 70 °F    
Average Humidity 87    
Maximum Humidity 100    
Minimum Humidity 59    
Precipitation  
Precipitation 0.00 in - - ()
Sea Level Pressure  
Sea Level Pressure 30.07 in    
Wind  
Wind Speed 2 mph ()    
Max Wind Speed 8 mph    
Max Gust Speed -    
Visibility 8.2 miles    
Events Fog    
Averages and records for this station are not official NWS values.
T = Trace of Precipitation, MM = Missing Value Source: Averaged Metar Reports

Daily Weather History Graph

Daily Weather History Graph

Search for Another Location

Airport or City:

Astronomy

Sep. 16, 2019 Rise Set
Actual Time 6:38 AM CDT 7:04 PM CDT
Civil Twilight 6:11 AM CDT 7:31 PM CDT
Nautical Twilight 5:39 AM CDT 8:03 PM CDT
Astronomical Twilight 5:06 AM CDT 8:36 PM CDT
Moon 8:39 PM CDT 8:46 AM CDT
Length of Visible Light 13h 20m
Length of Day
12h 25m
Waning Gibbous, 94% of the Moon is Illuminated
Sep 16
Waning Gibbous
Sep 21
Last Quarter
Sep 28
New
Oct 5
First Quarter
Oct 13
Full

Hourly Weather History & Observations

Time (CDT) Temp. Heat Index Dew Point Humidity Pressure Visibility Wind Dir Wind Speed Gust Speed Precip Events Conditions
12:15 AM 72.7 °F - 71.6 °F 96% 30.04 in 10.0 mi Calm Calm - N/A   Clear
12:35 AM 72.5 °F - 71.6 °F 97% 30.04 in 10.0 mi Calm Calm - N/A   Clear
12:55 AM 72.5 °F - 71.2 °F 96% 30.04 in 10.0 mi South 3.5 mph - N/A   Clear
1:15 AM 71.6 °F - 70.9 °F 98% 30.04 in 10.0 mi Calm Calm - N/A   Clear
1:35 AM 71.1 °F - 70.9 °F 99% 30.04 in 10.0 mi Calm Calm - N/A   Clear
1:55 AM 70.7 °F - 70.3 °F 99% 30.04 in 10.0 mi Calm Calm - N/A   Clear
2:15 AM 70.0 °F - 70.0 °F 100% 30.04 in 10.0 mi Calm Calm - N/A   Clear
2:35 AM 70.0 °F - 70.0 °F 100% 30.04 in 7.0 mi Calm Calm - N/A   Clear
2:55 AM 68.9 °F - 68.9 °F 100% 30.05 in 5.0 mi Calm Calm - N/A   Clear
3:15 AM 68.5 °F - 68.5 °F 100% 30.05 in 5.0 mi Calm Calm - N/A   Clear
3:35 AM 68.4 °F - 68.4 °F 100% 30.05 in 4.0 mi Calm Calm - N/A   Clear
3:55 AM 68.2 °F - 68.2 °F 100% 30.05 in 5.0 mi Calm Calm - N/A   Clear
4:15 AM 68.5 °F - 68.5 °F 100% 30.05 in 5.0 mi Calm Calm - N/A   Clear
4:35 AM 68.0 °F - 68.0 °F 100% 30.05 in 5.0 mi Calm Calm - N/A   Clear
4:55 AM 65.8 °F - 65.8 °F 100% 30.05 in 4.0 mi Calm Calm - N/A   Clear
5:15 AM 66.6 °F - 66.6 °F 100% 30.06 in 3.0 mi Calm Calm - N/A   Clear
5:35 AM 66.0 °F - 66.0 °F 100% 30.06 in 4.0 mi Calm Calm - N/A   Scattered Clouds
5:55 AM 66.6 °F - 66.6 °F 100% 30.06 in 1.0 mi Calm Calm - N/A   Overcast
6:15 AM 66.4 °F - 66.4 °F 100% 30.07 in 3.0 mi Calm Calm - N/A   Overcast
6:35 AM 65.8 °F - 65.8 °F 100% 30.07 in 0.5 mi Calm Calm - N/A Fog Fog
6:55 AM 65.7 °F - 65.7 °F 100% 30.07 in 0.5 mi Calm Calm - N/A Fog Fog
7:15 AM 64.8 °F - 64.8 °F 100% 30.08 in 1.8 mi Calm Calm - N/A   Overcast
7:35 AM 66.9 °F - 66.9 °F 100% 30.09 in 3.0 mi Calm Calm - N/A   Mostly Cloudy
7:55 AM 68.9 °F - 68.9 °F 100% 30.10 in 4.0 mi Calm Calm - N/A   Scattered Clouds
8:15 AM 71.2 °F - 71.1 °F 99% 30.10 in 5.0 mi North 4.6 mph - N/A   Clear
8:35 AM 72.5 °F - 71.8 °F 98% 30.11 in 7.0 mi North 4.6 mph - N/A   Clear
8:55 AM 73.6 °F - 72.3 °F 96% 30.11 in 7.0 mi North 4.6 mph - N/A   Clear
9:15 AM 75.9 °F - 73.4 °F 92% 30.11 in 10.0 mi North 3.5 mph - N/A   Clear
9:35 AM 77.5 °F - 73.9 °F 89% 30.11 in 10.0 mi NNE 5.8 mph - N/A   Clear
9:55 AM 79.3 °F - 74.1 °F 84% 30.11 in 10.0 mi North 5.8 mph - N/A   Clear
10:15 AM 80.6 °F 85.9 °F 74.5 °F 82% 30.11 in 10.0 mi North 5.8 mph - N/A   Clear
10:35 AM 81.7 °F 88.3 °F 75.4 °F 81% 30.11 in 10.0 mi North 5.8 mph - N/A   Clear
10:55 AM 82.2 °F 89.6 °F 75.7 °F 81% 30.10 in 10.0 mi North 4.6 mph - N/A   Clear
11:15 AM 83.3 °F 91.4 °F 75.7 °F 78% 30.10 in 10.0 mi NNE 4.6 mph - N/A   Clear
11:35 AM 83.8 °F 92.8 °F 76.3 °F 78% 30.10 in 10.0 mi NE 5.8 mph - N/A   Mostly Cloudy
11:55 AM 84.2 °F 93.4 °F 76.3 °F 77% 30.10 in 10.0 mi NNE 4.6 mph - N/A   Mostly Cloudy
12:15 PM 84.7 °F 94.0 °F 76.1 °F 75% 30.10 in 10.0 mi NE 3.5 mph - N/A   Mostly Cloudy
12:35 PM 85.5 °F 95.0 °F 75.7 °F 73% 30.09 in 10.0 mi North 4.6 mph - N/A   Mostly Cloudy
12:55 PM 84.9 °F 94.5 °F 76.1 °F 75% 30.09 in 10.0 mi NNE 8.1 mph - N/A   Mostly Cloudy
1:15 PM 85.5 °F 94.2 °F 75.2 °F 71% 30.09 in 10.0 mi North 8.1 mph - N/A   Scattered Clouds
1:35 PM 85.6 °F 93.4 °F 74.1 °F 68% 30.08 in 10.0 mi NNE 5.8 mph - N/A   Scattered Clouds
1:55 PM 85.8 °F 94.2 °F 74.5 °F 69% 30.08 in 10.0 mi NE 4.6 mph - N/A   Scattered Clouds
2:15 PM 85.1 °F 91.5 °F 72.7 °F 66% 30.07 in 10.0 mi North 3.5 mph - N/A   Scattered Clouds
2:35 PM 86.0 °F 91.1 °F 70.5 °F 60% 30.07 in 10.0 mi NNE 8.1 mph - N/A   Clear
2:55 PM 86.4 °F 92.2 °F 71.6 °F 61% 30.07 in 10.0 mi North 6.9 mph - N/A   Clear
3:15 PM 86.4 °F 92.2 °F 71.6 °F 61% 30.07 in 10.0 mi North 6.9 mph - N/A   Clear
3:35 PM 85.8 °F 90.8 °F 70.7 °F 60% 30.06 in 10.0 mi North 4.6 mph - N/A   Clear
3:55 PM 86.4 °F 91.4 °F 70.5 °F 59% 30.06 in 10.0 mi NNE 8.1 mph - N/A   Clear
4:15 PM 85.6 °F 90.4 °F 70.3 °F 60% 30.06 in 10.0 mi NNE 4.6 mph - N/A   Clear
4:35 PM 85.8 °F 90.8 °F 70.3 °F 60% 30.05 in 10.0 mi NNE 5.8 mph - N/A   Clear
4:55 PM 84.7 °F 89.7 °F 71.1 °F 63% 30.06 in 10.0 mi North 6.9 mph - N/A   Clear
5:15 PM 83.8 °F 88.9 °F 71.2 °F 66% 30.06 in 10.0 mi North 6.9 mph - N/A   Clear
5:35 PM 83.1 °F 87.8 °F 71.1 °F 67% 30.06 in 10.0 mi North 5.8 mph - N/A   Clear
5:55 PM 82.0 °F 86.3 °F 70.9 °F 69% 30.06 in 10.0 mi NNE 4.6 mph - N/A   Clear
6:15 PM 80.2 °F 84.0 °F 71.6 °F 75% 30.06 in 10.0 mi NNE 4.6 mph - N/A   Clear
6:35 PM 78.4 °F - 71.2 °F 78% 30.06 in 10.0 mi North 6.9 mph - N/A   Clear
6:50 PM 77.5 °F - 71.2 °F 81% 30.06 in 10.0 mi NNE 5.8 mph - N/A   Clear
7:15 PM 74.8 °F - 70.9 °F 87% 30.06 in 10.0 mi NNE 4.6 mph - N/A   Clear
7:35 PM 73.6 °F - 70.5 °F 90% 30.07 in 10.0 mi NNE 4.6 mph - N/A   Clear
7:55 PM 72.5 °F - 70.0 °F 92% 30.07 in 10.0 mi NNE 4.6 mph - N/A   Clear
8:15 PM 72.1 °F - 69.4 °F 91% 30.08 in 10.0 mi NNE 4.6 mph - N/A   Clear
8:35 PM 71.1 °F - 68.9 °F 93% 30.08 in 10.0 mi NE 3.5 mph - N/A   Clear
8:55 PM 70.7 °F - 68.2 °F 92% 30.09 in 10.0 mi NNE 4.6 mph - N/A   Clear
9:15 PM 70.3 °F - 67.5 °F 91% 30.09 in 10.0 mi NE 4.6 mph - N/A   Clear
9:35 PM 69.1 °F - 67.1 °F 93% 30.09 in 10.0 mi NE 3.5 mph - N/A   Clear
9:55 PM 68.5 °F - 66.7 °F 94% 30.09 in 10.0 mi NE 4.6 mph - N/A   Clear
10:35 PM 68.0 °F - 66.4 °F 95% 30.10 in 10.0 mi NE 4.6 mph - N/A   Clear
10:55 PM 67.1 °F - 66.2 °F 97% 30.10 in 10.0 mi NE 3.5 mph - N/A   Clear
11:15 PM 66.2 °F - 65.3 °F 97% 30.09 in 10.0 mi NE 3.5 mph - N/A   Clear
11:35 PM 65.5 °F - 65.3 °F 99% 30.10 in 7.0 mi NNE 3.5 mph - N/A   Clear
11:55 PM 64.9 °F - 64.6 °F 99% 30.10 in 7.0 mi NE 3.5 mph - N/A   Clear